Regional Weather Roundup
Issued by NWS Jackson, KY

Home | Current Version | Previous Version | Text Only | Print | Product List | Glossary On
Versions: 1 2 3 4 5 6 7 8 9 10 11 12 13 14 15 16 17 18 19 20 21 22 23 24 25 26 27 28 29 30 31 32 33 34 35 36 37 38 39 40 41 42 43 44 45 46 47 48 49 50
000
ASUS43 KJKL 221719
RWRJKL

EAST KENTUCKY HOURLY WEATHER ROUNDUP
NATIONAL WEATHER SERVICE JACKSON KY
100 PM EDT TUE JUL 22 2014

NOTE: "FAIR" INDICATES FEW OR NO CLOUDS BELOW 12,000 FEET WITH
NO SIGNIFICANT WEATHER AND/OR OBSTRUCTIONS TO VISIBILITY.

* THESE REPORTS ARE NOT UNDER NWS QUALITY CONTROL AND MAY NOT
  REPORT WEATHER SUCH AS PRECIPITATION AND FOG.

KYZ079-080-083-085-087-088-110-112-115-119-120-221800
...EASTERN KENTUCKY...

CITY           SKY/WX    TMP DP  RH WIND       PRES   REMARKS
JACKSON        SUNNY     84  68  58 CALM      30.14F
LONDON         SUNNY     84  68  58 W3        30.14F
SOMERSET*      CLOUDY    82  70  65 W5        30.13F
MONTICELLO*    MOSUNNY   87  72  61 S5        30.14F HX  93
WILLIAMSBURG*  SUNNY     82  72  69 SW5       30.14F
MIDDLESBORO*   MOSUNNY   84  70  61 S5        30.14F
HARLAN APT*    MOSUNNY   82  64  54 MISG      30.16F
HAZARD APT*    MOSUNNY   86  70  58 SE5       30.14F HX  90
BLACK MTN*       N/A     75  66  73 SW1         N/A
PIKEVILLE APT* MOSUNNY   82  68  61 CALM      30.15F
BIG SANDY*     SUNNY     84  69  60 W3        30.14F
MOREHEAD APT*    N/A     84  73  70 SW7       30.14F HX  91
ASHLAND*       SUNNY     88  68  51 CALM      30.08  HX  91
$$

KYZ035-036-041-042-044-050-067-078-099-221800
...CENTRAL KENTUCKY...

CITY           SKY/WX    TMP DP  RH WIND       PRES   REMARKS
MT STERLING*   MOSUNNY   86  72  62 CALM      30.13F HX  92
FLEMING/MASON* MOSUNNY   88  70  55 S3        30.12F HX  92
DANVILLE*      SUNNY     88  73  62 SW6       30.13S HX  96
RICHMOND*      MOSUNNY   86  70  58 SW6       30.12S HX  90
LEXINGTON      SUNNY     88  70  55 VRB5      30.12F HX  93
FRANKFORT      PTSUNNY   88  69  53 N5        30.10S HX  92
$$

KYZ091>093-OHZ055-061-077-WVZ005-015-034-035-042-221800
...SOUTHERN OHIO/WEST VIRGINIA...

CITY           SKY/WX    TMP DP  RH WIND       PRES   REMARKS
COVINGTON      MOSUNNY   87  65  47 SW7       30.10F
COLUMBUS       MOSUNNY   89  67  47 S8        30.09F HX  92
DAYTON         MOSUNNY   87  68  52 W10       30.11F HX  90
WILMINGTON     PTSUNNY   85  69  58 VRB5      30.10F
HUNTINGTON     SUNNY     85  69  58 S5        30.10F
CHARLESTON     MOSUNNY   86  68  54 CALM      30.12F
PINEVILLE*     MOSUNNY   87  70  56 MISG      30.22F HX  91
BECKLEY        MOSUNNY   80  63  55 SE8       30.23S
BLUEFIELD      PTSUNNY   78  63  59 VRB5      30.25F
$$

VAZ002-007-008-TNZ017-027-036-066-071-221800
...SOUTHWEST VIRGINIA/EAST TENNESSEE...

CITY           SKY/WX    TMP DP  RH WIND       PRES   REMARKS
WISE*          MOSUNNY   81  61  50 E5        30.23F
JONESVILLE*    SUNNY     84  66  54 CALM      30.18F
ABINGDON*      PTSUNNY   82  63  53 E5        30.20F
BRISTOL        MOSUNNY   84  65  52 S5        30.16F
KNOXVILLE      PTSUNNY   84  69  60 CALM      30.13F
OAK RIDGE      CLOUDY    84  70  62 S5        30.15S
CROSSVILLE     PTSUNNY   79  66  64 SE5       30.18F
NASHVILLE      PTSUNNY   88  70  55 SE7       30.11S HX  93
$$

...KEY TO REMARKS...
VSB - VISIBILITY IN MILES
WCI - WIND CHILL INDEX
HX  - HEAT INDEX

$$



USA.gov is the U.S. government's official web portal to all federal, state and local government web resources and services.